FW3671 Weather Reports


Display with metric or nautical units.
time (UTC)temp
F
wind
direction
speed
MPH
gust
MPH
rain 1hr
in
rain 24hr
in
rain mn
in
humidity
%
barometer
mb
20260508020018 77 278 2.0 3.0 0.00 0.00 0.00 22 1014.7
20260508015515 78 269 4.0 5.0 0.00 0.00 0.00 21 1014.6
20260508015012 79 339 1.0 3.0 0.00 0.00 0.00 22 1014.7
20260508014508 79 277 2.0 3.0 0.00 0.00 0.00 22 1014.5
20260508014005 80 278 2.0 3.0 0.00 0.00 0.00 22 1014.6
20260508013501 80 285 1.0 2.0 0.00 0.00 0.00 20 1014.8
20260508012958 80 13 0.0 3.0 0.00 0.00 0.00 21 1014.7
20260508012455 79 8 2.0 4.0 0.00 0.00 0.00 21 1014.6
20260508011952 78 72 2.0 3.0 0.00 0.00 0.00 23 1014.7
20260508011450 76 201 0.0 4.0 0.00 0.00 0.00 21 1014.6
20260508010947 77 177 2.0 4.0 0.00 0.00 0.00 22 1014.8
20260508010445 76 214 0.0 4.0 0.00 0.00 0.00 22 1015.1
20260508005942 75 73 1.0 4.0 0.00 0.00 0.00 23 1014.9
20260508005438 74 139 2.0 3.0 0.00 0.00 0.00 24 1014.9
20260508004934 73 89 0.0 3.0 0.00 0.00 0.00 23 1014.9
20260508004431 71 331 2.0 2.0 0.00 0.00 0.00 26 1015.3
20260508003928 71 345 3.0 4.0 0.00 0.00 0.00 26 1015.1
20260508003425 71 2 3.0 4.0 0.00 0.00 0.00 25 1015.2
20260508002922 71 29 3.0 5.0 0.00 0.00 0.00 26 1015.4
20260508002418 71 269 0.0 2.0 0.00 0.00 0.00 25 1015.3
20260508001915 71 12 1.0 2.0 0.00 0.00 0.00 25 1015.4
20260508001411 72 278 2.0 3.0 0.00 0.00 0.00 25 1015.4
20260508000908 72 289 5.0 7.0 0.00 0.00 0.00 25 1015.3
20260508000405 72 313 7.0 8.0 0.00 0.00 0.00 25 1015.4
20260507235900 73 279 5.0 7.0 0.00 0.00 0.00 24 1015.5
20260507235358 73 342 4.0 9.0 0.00 0.00 0.00 25 1015.5
20260507234855 75 298 4.0 9.0 0.00 0.00 0.00 23 1015.6
20260507234351 77 18 5.0 10.0 0.00 0.00 0.00 23 1015.3
20260507233848 77 354 10.0 13.0 0.00 0.00 0.00 23 1015.5
20260507233345 78 34 3.0 12.0 0.00 0.00 0.00 22 1015.6
20260507232843 78 350 7.0 12.0 0.00 0.00 0.00 22 1015.6
20260507232339 78 314 6.0 9.0 0.00 0.00 0.00 22 1015.7
20260507231837 78 326 6.0 13.0 0.00 0.00 0.00 22 1015.6
20260507231333 77 15 6.0 10.0 0.00 0.00 0.00 22 1015.9
20260507230829 77 26 9.0 16.0 0.00 0.00 0.00 23 1016.0
20260507230327 77 21 4.0 4.0 0.00 0.00 0.00 23 1015.9
20260507225827 77 5 4.0 13.0 0.00 0.00 0.00 22 1016.1
20260507225323 77 357 15.0 16.0 0.00 0.00 0.00 23 1016.1
20260507224819 77 318 11.0 14.0 0.00 0.00 0.00 22 1015.9
20260507224316 77 358 5.0 9.0 0.00 0.00 0.00 25 1016.1
20260507223812 75 322 9.0 13.0 0.00 0.00 0.00 26 1016.1
20260507223308 75 332 6.0 15.0 0.00 0.00 0.00 23 1016.1
20260507222806 75 338 9.0 17.0 0.00 0.00 0.00 24 1016.4
20260507222305 75 18 5.0 9.0 0.00 0.00 0.00 24 1016.3
20260507221759 75 356 9.0 13.0 0.00 0.00 0.00 24 1016.2
20260507221255 74 282 7.0 9.0 0.00 0.00 0.00 24 1016.4
20260507220752 74 329 14.0 16.0 0.00 0.00 0.00 24 1016.4
20260507220250 75 20 6.0 10.0 0.00 0.00 0.00 23 1016.3
20260507215746 75 358 9.0 9.0 0.00 0.00 0.00 24 1016.4
20260507215244 74 11 6.0 15.0 0.00 0.00 0.00 24 1016.6
20260507214741 73 326 9.0 19.0 0.00 0.00 0.00 24 1016.9
20260507214238 73 353 6.0 16.0 0.00 0.00 0.00 24 1016.7
20260507213733 74 350 4.0 12.0 0.00 0.00 0.00 24 1016.8
20260507213231 75 332 7.0 11.0 0.00 0.00 0.00 22 1016.9
20260507212726 74 258 1.0 8.0 0.00 0.00 0.00 25 1016.8
20260507212223 75 218 5.0 11.0 0.00 0.00 0.00 25 1016.9
20260507211720 76 321 8.0 18.0 0.00 0.00 0.00 22 1016.9
20260507211216 76 5 11.0 12.0 0.00 0.00 0.00 23 1017.0
20260507210713 76 39 4.0 10.0 0.00 0.00 0.00 22 1017.3
20260507210210 77 344 8.0 11.0 0.00 0.00 0.00 21 1017.1
20260507205706 77 285 6.0 15.0 0.00 0.00 0.00 21 1017.3
20260507205203 78 346 6.0 11.0 0.00 0.00 0.00 22 1017.3
20260507204659 77 325 6.0 7.0 0.00 0.00 0.00 22 1017.3
20260507204157 77 318 4.0 5.0 0.00 0.00 0.00 21 1017.6
20260507203655 77 354 6.0 9.0 0.00 0.00 0.00 22 1017.5
20260507203152 77 346 2.0 2.0 0.00 0.00 0.00 24 1017.5
20260507202647 76 22 3.0 8.0 0.00 0.00 0.00 21 1017.7
20260507202144 75 209 0.0 4.0 0.00 0.00 0.00 24 1017.7
20260507201639 73 164 6.0 6.0 0.00 0.00 0.00 22 1017.9
20260507201137 73 150 3.0 4.0 0.00 0.00 0.00 23 1017.8
20260507200632 73 132 12.0 13.0 0.00 0.00 0.00 23 1017.9
20260507200129 74 94 10.0 13.0 0.00 0.00 0.00 22 1017.8
20260507195626 74 188 9.0 14.0 0.00 0.00 0.00 24 1018.1
20260507195123 73 127 9.0 9.0 0.00 0.00 0.00 21 1018.1
20260507194620 73 121 6.0 18.0 0.00 0.00 0.00 22 1018.2
20260507194115 72 153 11.0 17.0 0.00 0.00 0.00 23 1018.1
20260507193612 71 155 9.0 14.0 0.00 0.00 0.00 25 1018.4
20260507193109 71 108 10.0 15.0 0.00 0.00 0.00 25 1018.5
20260507192605 70 159 12.0 16.0 0.00 0.00 0.00 23 1018.3
20260507192102 69 142 3.0 15.0 0.00 0.00 0.00 25 1018.4
20260507191557 69 105 5.0 14.0 0.00 0.00 0.00 24 1018.3
20260507191055 68 138 4.0 9.0 0.00 0.00 0.00 25 1018.5
20260507190552 68 159 10.0 15.0 0.00 0.00 0.00 24 1018.6
20260507190051 67 118 11.0 15.0 0.00 0.00 0.00 26 1018.6
20260507185549 66 140 8.0 20.0 0.00 0.00 0.00 25 1018.5
20260507185045 67 143 3.0 18.0 0.00 0.00 0.00 24 1018.9
20260507184543 67 132 12.0 20.0 0.00 0.00 0.00 25 1018.8
20260507184041 65 109 12.0 20.0 0.00 0.00 0.00 26 1018.9
20260507183536 64 148 7.0 20.0 0.00 0.00 0.00 25 1018.6
20260507183034 64 141 12.0 22.0 0.00 0.00 0.00 25 1019.1
20260507182530 64 155 8.0 23.0 0.00 0.00 0.00 25 1018.9
20260507182026 64 132 7.0 21.0 0.00 0.00 0.00 25 1018.9
20260507181523 64 149 17.0 23.0 0.00 0.00 0.00 24 1019.1
20260507181020 64 117 11.0 22.0 0.00 0.00 0.00 24 1018.9
20260507180516 64 147 17.0 21.0 0.00 0.00 0.00 25 1019.0
20260507180013 64 110 8.0 26.0 0.00 0.00 0.00 24 1019.3
20260507175509 64 157 11.0 27.0 0.00 0.00 0.00 24 1019.2
20260507175007 63 151 19.0 24.0 0.00 0.00 0.00 24 1019.2
20260507174504 63 133 11.0 23.0 0.00 0.00 0.00 24 1019.1
20260507174002 64 160 12.0 30.0 0.00 0.00 0.00 23 1019.5
20260507173458 62 130 16.0 26.0 0.00 0.00 0.00 23 1019.3
20260507172955 62 144 9.0 21.0 0.00 0.00 0.00 25 1019.3
20260507172451 62 126 17.0 27.0 0.00 0.00 0.00 24 1019.3
20260507171948 62 117 18.0 22.0 0.00 0.00 0.00 25 1019.7
20260507171444 62 134 18.0 25.0 0.00 0.00 0.00 25 1019.6
20260507170941 61 113 17.0 17.0 0.00 0.00 0.00 26 1019.3
20260507170438 61 132 19.0 25.0 0.00 0.00 0.00 25 1019.3
20260507165934 61 141 18.0 24.0 0.00 0.00 0.00 25 1019.5
20260507165430 61 110 14.0 26.0 0.00 0.00 0.00 25 1019.1
20260507164926 61 127 13.0 23.0 0.00 0.00 0.00 24 1019.8
20260507164423 61 136 19.0 25.0 0.00 0.00 0.00 25 1019.6
20260507163920 60 134 16.0 23.0 0.00 0.00 0.00 26 1019.9
20260507163418 60 136 15.0 26.0 0.00 0.00 0.00 24 1019.6
20260507162914 61 134 19.0 26.0 0.00 0.00 0.00 24 1019.6
20260507162409 61 151 15.0 25.0 0.00 0.00 0.00 25 1019.6
20260507161907 60 131 13.0 28.0 0.00 0.00 0.00 24 1019.5
20260507161403 60 134 19.0 31.0 0.00 0.00 0.00 24 1019.6
20260507160900 60 124 13.0 21.0 0.00 0.00 0.00 24 1019.6
20260507160355 60 134 19.0 27.0 0.00 0.00 0.00 24 1019.5
20260507155852 60 144 19.0 24.0 0.00 0.00 0.00 25 1019.5
20260507155348 60 128 14.0 28.0 0.00 0.00 0.00 25 1019.7
20260507154845 60 145 15.0 32.0 0.00 0.00 0.00 25 1019.6
20260507154342 60 148 15.0 34.0 0.00 0.00 0.00 25 1019.6
20260507153839 60 155 17.0 23.0 0.00 0.00 0.00 26 1019.5
20260507153336 60 146 17.0 30.0 0.00 0.00 0.00 25 1019.7
20260507152832 60 144 19.0 34.0 0.00 0.00 0.00 25 1019.5
20260507152328 59 127 16.0 28.0 0.00 0.00 0.00 25 1019.5
20260507151825 59 144 17.0 32.0 0.00 0.00 0.00 28 1019.6
20260507151321 59 142 15.0 26.0 0.00 0.00 0.00 25 1019.7
20260507150818 58 136 22.0 29.0 0.00 0.00 0.00 28 1019.5
20260507150315 58 124 21.0 28.0 0.00 0.00 0.00 30 1019.7
20260507145811 58 127 18.0 32.0 0.00 0.00 0.00 29 1019.8
20260507145307 58 152 12.0 31.0 0.00 0.00 0.00 30 1019.6
20260507144805 58 155 7.0 27.0 0.00 0.00 0.00 29 1019.8
20260507144302 58 164 10.0 32.0 0.00 0.00 0.00 29 1019.6
20260507143758 59 148 11.0 25.0 0.00 0.00 0.00 28 1019.5
20260507143256 59 126 16.0 29.0 0.00 0.00 0.00 26 1019.7
20260507142751 59 133 29.0 35.0 0.00 0.00 0.00 26 1019.8
20260507142248 59 125 23.0 32.0 0.00 0.00 0.00 26 1019.5
20260507141744 58 125 26.0 29.0 0.00 0.00 0.00 26 1019.5
20260507141242 58 147 23.0 32.0 0.00 0.00 0.00 28 1019.7
20260507140737 58 120 21.0 28.0 0.00 0.00 0.00 28 1019.9
20260507140235 57 151 17.0 26.0 0.00 0.00 0.00 28 1019.6
20260507135732 57 150 18.0 34.0 0.00 0.00 0.00 27 1019.8
20260507135230 58 155 13.0 29.0 0.00 0.00 0.00 28 1019.6
20260507134725 57 156 17.0 27.0 0.00 0.00 0.00 27 1019.6
20260507134222 57 137 15.0 33.0 0.00 0.00 0.00 28 1019.6
20260507133718 56 144 17.0 26.0 0.00 0.00 0.00 28 1019.6
20260507133215 55 130 12.0 26.0 0.00 0.00 0.00 28 1019.6
20260507132713 54 142 13.0 30.0 0.00 0.00 0.00 31 1019.5
20260507132209 53 147 11.0 29.0 0.00 0.00 0.00 31 1019.2
20260507131706 53 138 13.0 31.0 0.00 0.00 0.00 32 1019.6
20260507131203 52 144 15.0 27.0 0.00 0.00 0.00 33 1019.6
20260507130700 52 133 19.0 26.0 0.00 0.00 0.00 32 1019.6
20260507130157 52 151 8.0 28.0 0.00 0.00 0.00 32 1019.7
20260507125656 52 152 17.0 31.0 0.00 0.00 0.00 33 1019.7
20260507125154 52 158 15.0 32.0 0.00 0.00 0.00 33 1019.5
20260507124649 52 145 17.0 33.0 0.00 0.00 0.00 33 1019.5
20260507124147 52 153 28.0 31.0 0.00 0.00 0.00 33 1019.5
20260507123645 52 140 19.0 28.0 0.00 0.00 0.00 34 1019.5
20260507123142 51 145 8.0 33.0 0.00 0.00 0.00 35 1019.2
20260507122637 52 141 26.0 30.0 0.00 0.00 0.00 34 1019.0
20260507122133 53 148 15.0 24.0 0.00 0.00 0.00 31 1019.0
20260507121629 54 154 20.0 29.0 0.00 0.00 0.00 30 1019.0
20260507121126 54 126 19.0 29.0 0.00 0.00 0.00 29 1018.9
20260507120622 54 142 12.0 27.0 0.00 0.00 0.00 29 1019.1
20260507120118 54 150 12.0 26.0 0.00 0.00 0.00 29 1019.3
20260507115615 54 146 17.0 26.0 0.00 0.00 0.00 29 1019.3
20260507115111 54 157 11.0 24.0 0.00 0.00 0.00 29 1019.2
20260507114607 54 156 8.0 25.0 0.00 0.00 0.00 29 1019.6
20260507114104 54 145 12.0 22.0 0.00 0.00 0.00 29 1019.5
20260507113601 54 149 17.0 23.0 0.00 0.00 0.00 30 1019.3
20260507113058 54 151 21.0 24.0 0.00 0.00 0.00 30 1019.6
20260507112556 54 155 17.0 22.0 0.00 0.00 0.00 31 1019.5
20260507112053 54 154 15.0 26.0 0.00 0.00 0.00 31 1019.2
20260507111550 54 137 20.0 27.0 0.00 0.00 0.00 30 1019.2
20260507111046 53 144 16.0 26.0 0.00 0.00 0.00 31 1019.2
20260507110543 53 148 20.0 29.0 0.00 0.00 0.00 32 1019.1
20260507110039 53 142 17.0 31.0 0.00 0.00 0.00 32 1019.2
20260507105536 53 168 14.0 28.0 0.00 0.00 0.00 32 1019.3
20260507105032 53 147 20.0 29.0 0.00 0.00 0.00 33 1019.3
20260507104530 53 163 20.0 27.0 0.00 0.00 0.00 33 1019.6
20260507104026 53 136 23.0 28.0 0.00 0.00 0.00 33 1019.3
20260507103522 53 147 16.0 28.0 0.00 0.00 0.00 32 1019.6
20260507103019 53 154 15.0 27.0 0.00 0.00 0.00 31 1019.5
20260507102516 53 160 15.0 28.0 0.00 0.00 0.00 32 1019.7
20260507102012 54 142 14.0 29.0 0.00 0.00 0.00 31 1019.5
20260507101507 54 152 19.0 29.0 0.00 0.00 0.00 31 1019.6
20260507101004 54 143 17.0 28.0 0.00 0.00 0.00 30 1019.2
20260507100501 54 148 10.0 24.0 0.00 0.00 0.00 30 1019.6
20260507095959 54 155 15.0 26.0 0.00 0.00 0.00 29 1019.8
20260507095457 54 144 14.0 23.0 0.00 0.00 0.00 30 1019.7
20260507094953 55 145 16.0 24.0 0.00 0.00 0.00 30 1019.9
20260507094449 55 149 16.0 24.0 0.00 0.00 0.00 29 1019.8
20260507093947 55 143 8.0 22.0 0.00 0.00 0.00 29 1019.9
20260507093444 55 158 11.0 25.0 0.00 0.00 0.00 29 1020.0
20260507092943 55 143 11.0 24.0 0.00 0.00 0.00 29 1020.3
20260507092438 55 169 13.0 19.0 0.00 0.00 0.00 29 1020.4
20260507091935 55 166 10.0 21.0 0.00 0.00 0.00 29 1020.1
20260507091432 55 144 14.0 20.0 0.00 0.00 0.00 28 1020.0
20260507090928 55 132 20.0 22.0 0.00 0.00 0.00 28 1020.1
20260507090424 55 143 16.0 25.0 0.00 0.00 0.00 28 1020.4
20260507085921 55 145 11.0 22.0 0.00 0.00 0.00 28 1020.1
20260507085418 55 141 15.0 22.0 0.00 0.00 0.00 29 1020.3
20260507084915 55 168 9.0 26.0 0.00 0.00 0.00 30 1020.3
20260507084412 55 151 12.0 20.0 0.00 0.00 0.00 30 1020.5
20260507083909 54 144 15.0 22.0 0.00 0.00 0.00 31 1020.4
20260507083405 55 145 18.0 25.0 0.00 0.00 0.00 31 1020.5
20260507082901 55 141 12.0 21.0 0.00 0.00 0.00 30 1020.5
20260507082357 55 146 9.0 23.0 0.00 0.00 0.00 29 1020.6
20260507081855 55 151 19.0 20.0 0.00 0.00 0.00 29 1020.7
20260507081350 55 172 13.0 21.0 0.00 0.00 0.00 30 1020.5
20260507080848 55 147 17.0 23.0 0.00 0.00 0.00 30 1020.7
20260507080343 55 155 15.0 21.0 0.00 0.00 0.00 31 1020.6
20260507075839 55 134 14.0 19.0 0.00 0.00 0.00 31 1020.8
20260507075335 55 154 12.0 19.0 0.00 0.00 0.00 31 1020.7
20260507074832 55 153 13.0 24.0 0.00 0.00 0.00 32 1020.8
20260507074329 55 143 15.0 21.0 0.00 0.00 0.00 32 1021.0
20260507073826 55 128 13.0 20.0 0.00 0.00 0.00 32 1021.0
20260507073323 55 142 16.0 17.0 0.00 0.00 0.00 32 1020.8
20260507072820 55 155 10.0 21.0 0.00 0.00 0.00 33 1021.1
20260507072318 55 142 9.0 18.0 0.00 0.00 0.00 33 1021.1
20260507071815 55 131 11.0 20.0 0.00 0.00 0.00 33 1021.3
20260507071312 55 132 12.0 21.0 0.00 0.00 0.00 32 1021.0
20260507070808 55 125 19.0 23.0 0.00 0.00 0.00 32 1021.2
20260507070306 55 131 16.0 27.0 0.00 0.00 0.00 32 1021.1
20260507065802 54 134 19.0 20.0 0.00 0.00 0.00 33 1021.3
20260507065259 54 149 11.0 19.0 0.00 0.00 0.00 34 1021.1
20260507064756 54 141 11.0 17.0 0.00 0.00 0.00 34 1021.4
20260507064255 54 147 13.0 19.0 0.00 0.00 0.00 34 1021.1
20260507063752 54 126 14.0 18.0 0.00 0.00 0.00 34 1021.2
20260507063249 54 130 12.0 19.0 0.00 0.00 0.00 34 1021.2
20260507062745 54 142 9.0 16.0 0.00 0.00 0.00 34 1021.3
20260507062243 54 163 5.0 17.0 0.00 0.00 0.00 34 1021.1
20260507061741 54 163 8.0 13.0 0.00 0.00 0.00 34 1021.2
20260507061238 54 143 11.0 21.0 0.00 0.00 0.00 34 1021.0
20260507060737 54 149 11.0 18.0 0.00 0.00 0.00 33 1021.1
20260507060233 54 142 15.0 16.0 0.00 0.00 0.00 34 1021.2
20260507055729 54 138 7.0 18.0 0.00 0.13 0.13 33 1021.2
20260507055225 54 131 12.0 16.0 0.00 0.13 0.13 33 1021.3
20260507054721 54 133 11.0 21.0 0.00 0.13 0.13 33 1021.1
20260507054218 54 147 13.0 19.0 0.00 0.13 0.13 33 1021.3
20260507053715 54 140 10.0 15.0 0.00 0.13 0.13 34 1021.1
20260507053213 54 151 8.0 16.0 0.00 0.13 0.13 33 1021.2
20260507052712 54 145 12.0 14.0 0.00 0.13 0.13 33 1021.2
20260507052207 54 156 12.0 16.0 0.00 0.13 0.13 32 1021.1
20260507051706 54 132 14.0 16.0 0.00 0.13 0.13 33 1021.0
20260507051202 54 157 10.0 15.0 0.00 0.13 0.13 32 1021.1
20260507050659 53 144 8.0 13.0 0.00 0.13 0.13 32 1021.1
20260507050156 54 162 7.0 10.0 0.00 0.13 0.13 33 1021.2
20260507045652 54 129 9.0 13.0 0.00 0.13 0.13 31 1021.2
20260507045149 55 147 6.0 13.0 0.00 0.13 0.13 31 1021.3
20260507044646 54 146 7.0 14.0 0.00 0.13 0.13 31 1021.3
20260507044143 54 141 10.0 14.0 0.00 0.13 0.13 31 1021.2
20260507043639 53 135 15.0 17.0 0.00 0.13 0.13 32 1021.2
20260507043136 53 130 11.0 12.0 0.00 0.13 0.13 33 1021.0
20260507042632 52 104 6.0 11.0 0.00 0.13 0.13 35 1021.0
20260507042127 51 132 7.0 10.0 0.00 0.13 0.13 36 1020.8
20260507041624 51 112 11.0 15.0 0.00 0.13 0.13 36 1021.1
20260507041121 51 126 15.0 15.0 0.00 0.13 0.13 36 1021.2
20260507040618 51 116 7.0 11.0 0.00 0.13 0.13 35 1021.2
20260507040114 52 133 10.0 12.0 0.00 0.13 0.13 36 1021.2
20260507035610 52 144 9.0 16.0 0.00 0.13 0.13 35 1021.3
20260507035106 52 128 11.0 16.0 0.00 0.13 0.13 36 1021.2
20260507034604 52 130 10.0 15.0 0.00 0.13 0.13 35 1021.1
20260507034102 53 141 9.0 15.0 0.00 0.13 0.13 35 1021.1
20260507033600 53 150 9.0 15.0 0.00 0.13 0.13 34 1021.1
20260507033056 53 135 10.0 13.0 0.00 0.13 0.13 33 1021.0
20260507032554 53 135 10.0 15.0 0.00 0.13 0.13 33 1021.0
20260507032050 53 125 15.0 17.0 0.00 0.13 0.13 33 1020.6
20260507031546 53 125 12.0 13.0 0.00 0.13 0.13 33 1020.7
20260507031043 61 136 8.0 9.0 0.00 0.13 0.13 26 1020.7
20260507030540 61 137 5.0 6.0 0.00 0.13 0.13 26 1020.7
20260507030038 61 135 6.0 7.0 0.00 0.13 0.13 26 1020.7
20260507025535 61 130 4.0 4.0 0.00 0.13 0.13 26 1020.7
20260507025032 61 187 2.0 4.0 0.00 0.13 0.13 26 1020.5
20260507024530 61 216 3.0 4.0 0.00 0.13 0.13 26 1020.4
20260507024026 61 211 4.0 5.0 0.00 0.13 0.13 26 1020.5
20260507023522 61 224 2.0 3.0 0.00 0.13 0.13 26 1020.5
20260507023020 61 255 3.0 6.0 0.00 0.13 0.13 26 1020.5
20260507022516 61 267 4.0 5.0 0.00 0.13 0.13 26 1020.5
20260507022012 61 285 5.0 6.0 0.00 0.13 0.13 26 1020.4
20260507021508 61 313 1.0 8.0 0.00 0.13 0.13 26 1020.3
20260507021005 63 309 2.0 7.0 0.00 0.13 0.13 24 1020.1
20260507020502 63 337 5.0 6.0 0.00 0.13 0.13 24 1020.1